Theta_e
307 302 299 302 304 303 302 300 299 302 305 302 303 303 306 309 309 309 310 311 313 314 317 319 320 322 323 327 328 333 336 352 356 354 352 353 351 353 353 355 361 361 358 357
303 299 304 306 305 302 301 298 299 302 305 304 303 302 306 308 309 310 310 311 312 314 315 317 319 321 322 325 329 332 335 343 348 347 355 354 354 350 351 352 359 359 359 361
301 303 305 303 302 300 300 299 299 299 303 304 302 300 303 307 309 310 311 312 313 313 314 316 317 319 321 322 326 332 337 342 346 350 348 358 356 353 347 347 350 357 359 359
304 306 303 302 299 301 297 303 301 299 298 294 303 293 302 305 307 308 310 311 312 313 315 316 317 319 321 322 324 326 331 338 340 349 343 348 343 342 342 343 345 354 361 359
301 302 300 299 300 303 299 303 301 300 299 298 298 296 300 306 304 307 310 311 313 314 315 315 316 319 321 322 323 326 333 334 337 342 348 339 342 337 341 344 351 356 359 361
302 306 303 303 304 303 304 301 301 301 299 293 298 298 298 302 305 308 311 312 313 313 314 316 317 319 320 321 323 326 329 333 335 336 340 346 347 346 340 341 342 345 350 355
299 301 304 305 300 304 303 299 292 291 292 291 301 298 301 306 308 309 309 311 314 314 313 313 315 316 318 320 321 323 325 328 332 333 334 336 342 346 350 347 340 341 343 347
294 293 301 304 301 299 300 299 291 285 288 292 300 295 301 309 310 310 310 311 312 312 314 313 314 315 316 318 320 321 322 323 327 330 333 335 337 333 334 340 340 342 338 342
294 295 304 304 305 303 299 296 301 295 297 293 296 300 306 309 309 309 309 310 310 311 312 313 314 315 316 317 319 320 321 323 324 326 330 333 335 337 336 342 344 342 348 346
298 293 301 303 305 306 301 303 293 295 287 287 292 296 297 303 305 307 307 308 310 311 312 313 313 315 316 318 319 320 320 321 322 323 326 328 331 334 336 341 342 344 349 351
301 297 296 300 299 297 298 296 297 297 295 289 288 292 304 303 305 307 307 307 308 309 311 312 313 314 315 316 316 318 319 318 319 322 324 325 328 330 333 336 338 343 347 347
300 297 293 296 302 303 301 298 297 290 291 294 293 293 307 306 308 307 307 307 309 310 310 311 311 312 312 314 315 316 318 318 318 319 320 322 326 329 329 331 334 338 339 340
302 295 290 293 299 302 297 299 299 298 297 292 289 293 305 306 305 306 306 307 307 308 310 310 310 310 311 312 314 314 315 315 317 318 318 319 321 324 329 330 330 331 333 333
300 296 291 288 293 295 292 296 297 296 292 292 293 294 299 301 304 305 306 305 307 308 309 309 310 310 311 311 312 312 313 313 314 315 316 317 319 320 322 324 324 324 328 329
298 291 294 294 294 295 295 294 295 292 294 290 294 294 297 302 303 303 305 306 306 306 307 308 308 309 310 310 310 310 311 312 313 312 312 314 317 319 319 321 319 319 318 326
300 290 294 291 294 294 292 295 295 295 295 294 295 295 302 304 303 303 304 303 304 305 306 307 308 308 308 309 309 310 310 310 312 311 311 312 313 314 316 318 322 318 316 321
294 291 291 288 293 293 288 293 295 295 297 296 291 297 301 301 302 303 304 304 304 305 306 306 307 308 309 309 310 309 309 311 310 310 310 310 311 311 313 316 317 317 316 317
292 292 291 288 290 282 294 300 298 296 298 299 299 300 301 302 303 304 305 304 304 305 305 306 307 307 308 307 307 309 308 307 306 306 307 309 309 310 311 313 315 320 323 321
299 293 287 286 287 291 294 297 297 295 295 301 299 301 301 302 302 302 305 306 305 305 305 305 306 305 306 306 306 305 306 305 305 304 305 306 307 308 310 311 316 318 319 322
299 296 289 288 284 283 294 298 302 301 291 301 300 300 300 301 294 298 303 303 304 304 303 304 304 303 304 304 305 303 303 302 302 303 304 306 306 307 309 312 315 316 317 317
291 290 285 287 286 291 299 300 301 289 291 300 300 301 300 297 299 302 303 302 302 302 302 302 302 302 302 303 305 302 301 300 303 303 305 305 306 305 307 309 313 315 314 314
290 289 288 290 286 284 302 300 293 298 303 302 302 302 300 301 301 301 301 301 301 300 301 302 300 302 302 303 302 301 299 303 303 302 304 304 304 305 305 306 305 309 312 314
290 294 290 291 293 300 302 302 302 302 301 301 302 302 301 300 300 300 299 300 299 299 299 299 299 298 299 299 300 298 300 301 300 301 301 301 303 304 304 303 304 304 307 307
296 299 293 293 298 298 302 302 303 302 301 304 303 302 302 299 299 298 298 298 299 298 297 296 296 294 295 296 298 298 298 298 298 298 299 300 299 299 303 303 302 302 302 304
295 296 294 294 297 300 301 302 302 302 304 303 302 302 300 299 298 298 298 298 297 295 295 294 292 292 293 294 294 296 296 296 295 296 297 296 296 296 298 300 302 301 303 304
297 295 293 293 299 298 298 302 303 303 301 301 301 299 300 300 298 298 297 297 295 293 292 290 290 290 290 291 292 293 294 294 293 293 294 295 296 295 296 297 298 297 296 296
Wind_Speed
15 14 16 17 17 18 18 14 16 12 6 8 12 16 17 15 15 14 15 16 15 15 13 12 13 8 8 7 5 6 9 10 9 10 11 11 12 12 12 12 14 14 14 17
16 16 17 16 13 11 13 16 17 16 13 13 15 19 17 16 15 17 17 17 16 16 15 13 13 12 11 9 9 8 8 8 10 10 9 10 10 13 12 12 12 14 15 16
19 12 5 10 15 14 17 17 17 17 14 9 16 19 20 18 23 21 18 18 16 16 16 14 11 9 7 6 10 10 9 9 8 11 10 9 10 10 11 12 11 13 16 16
16 15 16 13 13 12 17 17 17 15 15 15 17 16 16 12 14 13 14 15 16 18 17 12 4 6 9 10 11 11 8 8 9 10 11 13 12 13 13 13 12 13 16 17
15 15 12 17 20 17 17 15 12 15 16 18 19 14 15 17 16 16 13 11 12 6 6 4 5 7 10 11 11 11 9 8 9 9 10 11 13 12 12 12 13 11 12 17
16 12 5 12 9 5 13 9 14 16 16 19 20 20 16 16 17 10 9 14 6 5 3 3 6 8 10 9 10 11 9 8 9 10 11 11 13 13 12 12 12 12 13 14
17 20 19 16 16 14 13 13 12 16 16 18 20 21 14 7 9 10 13 8 11 5 3 5 7 9 8 9 6 8 9 9 10 11 11 12 12 13 14 13 13 14 13 15
15 14 11 11 16 16 19 18 14 22 19 18 20 18 13 16 3 4 4 2 2 4 3 4 8 7 10 8 10 11 10 10 10 10 11 11 12 11 11 13 13 13 14 17
10 17 8 12 13 12 15 17 15 15 19 19 18 26 21 24 18 13 12 11 5 3 6 9 9 9 9 10 10 11 11 12 13 11 9 10 11 13 13 14 14 12 16 17
2 12 13 15 17 18 16 12 8 8 7 17 14 16 6 12 11 5 7 7 5 5 9 11 10 11 8 9 10 9 8 13 14 11 11 11 9 12 13 12 14 15 14 16
8 13 15 17 19 21 14 12 17 17 15 11 16 12 7 6 4 6 5 3 5 8 10 12 13 14 14 12 10 9 8 8 12 12 11 12 11 10 12 12 14 13 12 14
4 5 13 21 20 19 15 19 15 6 10 13 11 8 11 7 11 6 8 8 11 13 14 14 14 15 13 13 10 10 9 10 9 10 13 11 13 13 8 8 11 12 14 14
3 4 9 13 16 14 13 13 14 13 13 19 15 12 6 7 11 8 11 17 14 10 11 10 12 11 12 15 10 10 12 13 14 10 11 12 10 11 13 9 10 8 7 13
4 13 15 15 20 5 9 16 17 13 10 14 19 23 21 9 12 13 20 15 12 12 12 12 13 13 12 13 14 13 14 14 15 14 12 13 11 12 10 12 6 11 10 9
5 9 16 20 21 22 23 21 20 21 21 21 20 23 21 18 21 16 10 13 14 14 14 13 16 16 16 15 14 16 16 16 15 15 16 14 14 14 14 9 7 3 11 17
9 8 16 20 18 20 22 22 22 23 22 20 24 26 22 22 7 12 11 14 17 16 16 18 20 15 17 16 16 17 18 17 17 18 16 17 16 16 15 15 7 4 7 20
5 3 7 13 12 13 15 17 18 16 14 16 17 14 7 8 10 11 13 15 18 19 21 21 18 17 18 18 17 18 18 17 18 19 18 17 18 18 17 15 14 13 14 18
8 14 4 9 11 12 9 3 5 6 11 11 12 12 12 12 14 19 20 22 22 20 21 22 21 22 21 16 16 17 18 16 17 19 22 23 19 20 18 17 16 13 12 16
19 11 4 6 9 16 21 6 2 6 10 12 11 11 15 19 21 21 18 18 22 24 23 23 23 23 23 22 19 19 18 16 18 21 22 23 24 24 21 17 15 13 13 13
8 9 5 9 7 8 8 2 6 8 10 10 12 13 17 19 17 16 25 25 25 25 24 22 22 21 20 18 19 17 17 16 19 21 20 19 20 21 21 17 14 13 14 15
4 4 8 12 8 8 6 2 4 8 6 12 12 16 19 18 17 23 23 24 24 21 20 19 20 20 19 15 18 17 16 18 20 19 18 16 18 17 17 17 16 15 14 16
8 5 5 7 6 9 11 5 6 9 13 16 17 19 20 22 23 23 25 25 25 24 25 25 20 21 19 17 18 20 18 20 22 17 16 16 16 13 14 18 13 15 15 16
5 3 2 5 4 4 3 10 7 7 12 16 19 20 21 24 24 25 23 24 23 21 19 20 21 20 24 20 16 17 20 21 17 16 16 15 16 17 15 16 16 14 13 12
5 6 5 7 5 6 14 4 6 11 14 18 19 21 21 24 25 25 24 22 20 19 21 21 22 24 17 17 18 17 18 17 16 17 16 15 14 14 14 12 11 12 12 12
9 8 13 16 14 11 4 8 12 15 17 19 20 21 22 22 24 25 24 23 17 20 19 17 18 19 22 20 20 18 15 14 16 16 14 15 13 14 14 15 13 13 15 14
5 8 6 8 6 7 10 14 16 16 19 18 20 22 22 23 24 25 23 20 17 18 19 18 19 19 19 19 19 18 16 15 16 17 14 13 12 12 12 12 12 18 19 14
Wind_Direction
201 229 227 232 222 261 294 286 285 278 228 253 268 271 269 257 247 247 245 236 242 243 248 242 244 226 262 274 272 245 230 246 241 225 223 215 229 219 221 227 226 208 212 222
234 230 253 252 258 266 261 258 258 261 266 263 267 264 265 261 254 248 255 254 242 243 242 242 236 233 240 237 267 275 268 233 243 228 238 248 225 230 221 218 218 217 215 219
233 250 180 276 252 244 249 256 266 272 277 231 257 265 256 250 249 251 246 258 257 258 259 260 264 253 267 273 274 270 267 271 237 253 251 229 246 263 243 223 220 212 216 213
246 241 257 227 245 252 256 245 250 260 261 260 251 271 274 266 265 254 234 226 249 252 244 241 277 329 298 285 282 275 276 277 261 246 252 259 250 229 232 239 232 212 205 219
248 227 240 251 257 252 256 280 280 271 263 270 258 258 259 247 240 234 229 265 254 247 44 355 321 317 303 293 281 265 267 275 277 276 278 267 241 260 246 246 253 237 215 205
258 272 261 282 300 272 288 255 253 250 253 252 252 255 260 260 261 256 225 216 153 99 25 310 311 300 289 316 316 315 307 283 281 277 274 261 271 282 274 252 248 241 220 206
256 247 246 239 255 259 231 252 265 256 243 256 249 245 258 291 301 281 293 277 114 115 315 351 317 309 325 303 329 324 323 311 297 287 277 271 268 270 266 269 266 265 255 226
286 257 253 295 245 264 255 245 251 281 281 290 305 281 269 274 210 281 259 296 33 192 344 287 281 294 298 322 312 318 310 313 304 293 287 283 276 265 259 250 252 266 253 258
303 272 286 284 282 289 283 279 293 322 286 272 273 273 266 261 240 188 205 232 269 332 307 288 295 304 310 311 311 313 314 308 302 300 287 283 280 264 269 272 273 258 250 271
277 277 272 287 303 274 264 269 276 249 270 265 267 274 283 346 322 24 156 222 217 293 294 300 304 295 307 306 299 299 330 315 308 306 305 288 290 288 280 266 257 262 271 266
261 256 267 266 252 257 266 253 262 260 267 267 279 272 358 317 1 310 263 266 275 275 287 297 299 305 309 299 298 310 314 310 310 325 311 303 288 276 288 274 266 262 258 255
265 274 274 271 279 271 248 268 249 239 258 257 286 273 291 87 247 220 310 317 286 294 312 306 311 313 300 297 307 305 303 300 292 301 313 316 313 300 259 265 268 262 250 248
357 246 288 273 232 235 253 244 258 263 273 262 265 259 104 337 301 254 294 285 293 300 282 291 292 295 301 302 303 307 305 303 306 301 305 303 309 310 308 307 259 272 279 226
330 272 263 273 296 242 274 280 276 260 265 273 259 278 282 311 278 269 263 300 288 291 289 285 286 290 299 302 306 297 299 299 298 301 296 291 290 299 287 303 332 341 284 274
259 261 266 271 273 281 282 278 274 265 261 259 273 283 289 280 286 292 299 285 283 293 291 305 300 299 298 294 299 299 296 298 298 291 291 289 287 278 285 255 259 288 308 295
171 261 267 274 264 256 262 263 257 253 256 249 252 255 252 258 347 322 325 315 301 286 299 294 288 290 294 293 295 295 295 292 288 285 283 288 282 280 274 280 236 213 254 276
233 257 273 262 284 290 265 259 273 250 262 268 275 298 342 290 327 317 290 284 309 303 294 292 303 303 298 293 293 291 290 297 297 291 277 272 279 271 268 259 265 195 200 248
231 262 275 285 300 257 305 155 316 297 289 301 309 332 338 329 332 322 321 302 293 308 316 313 310 306 297 298 304 297 298 301 298 294 288 286 277 274 264 262 250 255 234 208
210 228 251 256 259 287 275 313 209 350 305 336 342 354 345 336 312 293 293 333 327 319 314 307 303 304 308 307 300 295 294 294 285 274 273 273 269 271 263 253 255 245 249 251
170 207 231 261 258 272 110 263 3 318 267 35 1 325 313 318 303 299 337 322 315 310 296 296 301 301 287 283 284 283 282 282 276 274 273 268 274 277 273 270 263 250 250 251
186 174 225 242 253 279 52 55 305 259 10 307 305 315 313 309 306 310 314 300 292 306 310 307 299 289 295 284 286 278 276 272 277 275 266 270 266 264 270 283 268 250 246 251
198 227 211 237 246 243 355 332 334 348 333 328 316 313 314 308 307 311 306 305 306 308 310 309 301 294 292 290 299 287 276 282 281 270 266 266 259 260 265 258 263 279 244 242
281 237 339 259 310 288 286 259 323 359 318 309 313 318 314 308 308 302 305 315 307 309 315 315 309 299 299 294 274 276 277 282 277 265 262 259 260 259 249 253 252 251 250 247
292 181 235 289 235 332 286 1 11 327 304 319 315 314 314 313 314 311 307 305 308 318 311 306 304 297 284 284 279 277 282 280 274 269 263 264 265 267 256 245 238 236 238 242
286 285 282 272 270 341 352 349 334 316 314 323 317 320 317 317 307 304 308 311 322 308 303 302 300 293 295 299 296 289 280 285 283 275 263 249 245 249 249 245 241 233 235 233
339 285 281 294 333 310 311 320 310 324 326 321 321 318 315 309 310 309 317 316 308 305 307 303 297 291 290 292 287 284 280 268 260 262 261 253 246 243 244 242 244 239 245 238